Weather History for KRDG - September, 2012

Change the Weather History Date:

Thursday, September 6, 2012

  Actual Average Record
Temperature  
Mean Temperature 75 °F 69 °F  
Max Temperature 84 °F 79 °F 97 °F (1983)
Min Temperature 65 °F 59 °F 44 °F (1984)
Degree Days  
Heating Degree Days 0 0  
Month to date heating degree days 0 0  
Since 1 July heating degree days 0 5  
Cooling Degree Days 10 5  
Month to date cooling degree days 65 32  
Year to date cooling degree days 1214 835  
Growing Degree Days 23 (Base 50)    
Moisture  
Dew Point 66 °F    
Average Humidity 77    
Maximum Humidity 100    
Minimum Humidity 54    
Precipitation  
Precipitation 0.01 in 0.11 in 2.80 in (1979)
Month to date precipitation 1.68 0.64  
Year to date precipitation 23.57 29.60  
Sea Level Pressure  
Sea Level Pressure 29.90 in    
Wind  
Wind Speed 2 mph (SSW)    
Max Wind Speed 10 mph    
Max Gust Speed 12 mph    
Visibility 9 miles    
Events Rain    
T = Trace of Precipitation, MM = Missing Value Source: NWS Daily Summary

Daily Weather History Graph

Daily Weather History Graph

Search for Another Location

Airport or City:

Trip Planner

Search our weather history database for the weather conditions in past years. The results will help you decide how hot, cold, wet, or windy it might be!

Date:

Astronomy

Sep. 06, 2012 Rise Set
Actual Time 6:36 AM EDT 7:26 PM EDT
Civil Twilight 6:08 AM EDT 7:54 PM EDT
Nautical Twilight 5:35 AM EDT 8:27 PM EDT
Astronomical Twilight 5:01 AM EDT 9:01 PM EDT
Moon 10:34 PM EDT (9/6) 12:34 PM EDT (9/6)
Length of Visible Light 13h 45m
Length of Day
12h 50m
Waning Gibbous, 67% of the Moon is Illuminated
Sep 6
Waning Gibbous
Sep 8
Last Quarter
Sep 15
New
Sep 22
First Quarter
Sep 29
Full

Hourly Weather History & Observations

Time (EDT) Temp. Heat Index Dew Point Humidity Pressure Visibility Wind Dir Wind Speed Gust Speed Precip Events Conditions
12:54 AM 66.9 °F - 64.0 °F 90% 29.87 in 10.0 mi NNW 3.5 mph - N/A   Clear
1:54 AM 66.0 °F - 63.0 °F 90% 29.87 in 10.0 mi Calm Calm - N/A   Clear
2:54 AM 64.9 °F - 63.0 °F 93% 29.87 in 4.0 mi North 3.5 mph - N/A   Clear
3:54 AM 64.9 °F - 63.0 °F 93% 29.87 in 10.0 mi NNW 5.8 mph - N/A   Clear
4:54 AM 64.9 °F - 64.0 °F 97% 29.88 in 10.0 mi Calm Calm - N/A   Clear
5:54 AM 66.0 °F - 64.0 °F 93% 29.88 in 5.0 mi Calm Calm - N/A   Clear
6:54 AM 66.9 °F - 64.0 °F 90% 29.88 in 10.0 mi Calm Calm - N/A   Clear
7:54 AM 66.9 °F - 64.9 °F 93% 29.90 in 10.0 mi Calm Calm - N/A   Clear
8:54 AM 66.9 °F - 64.9 °F 93% 29.91 in 7.0 mi Variable 3.5 mph - 0.01 in Rain Light Rain
9:54 AM 69.1 °F - 66.0 °F 90% 29.92 in 10.0 mi Calm Calm - 0.00 in   Partly Cloudy
10:54 AM 72.0 °F - 66.9 °F 84% 29.93 in 10.0 mi Calm Calm - N/A   Clear
11:54 AM 75.9 °F - 66.9 °F 74% 29.92 in 10.0 mi Calm Calm - N/A   Clear
12:54 PM 79.0 °F - 64.0 °F 60% 29.91 in 10.0 mi South 3.5 mph - N/A   Clear
1:54 PM 81.0 °F 82.2 °F 63.0 °F 54% 29.91 in 10.0 mi East 3.5 mph - N/A   Clear
2:54 PM 81.0 °F 83.3 °F 66.9 °F 62% 29.90 in 10.0 mi South 3.5 mph - N/A   Clear
3:54 PM 82.9 °F 85.4 °F 66.9 °F 58% 29.89 in 10.0 mi Calm Calm - N/A   Clear
4:54 PM 82.0 °F 85.5 °F 69.1 °F 65% 29.88 in 10.0 mi SW 5.8 mph - N/A   Partly Cloudy
5:54 PM 82.0 °F 85.5 °F 69.1 °F 65% 29.88 in 10.0 mi SSW 5.8 mph - N/A   Partly Cloudy
6:54 PM 80.1 °F 82.7 °F 68.0 °F 67% 29.88 in 10.0 mi South 5.8 mph - N/A   Clear
7:54 PM 77.0 °F - 69.1 °F 76% 29.90 in 10.0 mi Calm Calm - N/A   Clear
8:54 PM 75.0 °F - 69.1 °F 82% 29.91 in 10.0 mi Calm Calm - N/A   Clear
9:54 PM 75.0 °F - 70.0 °F 84% 29.92 in 10.0 mi South 3.5 mph - N/A   Clear
10:54 PM 73.9 °F - 70.0 °F 87% 29.92 in 10.0 mi Calm Calm - N/A   Mostly Cloudy
11:54 PM 73.9 °F - 70.0 °F 87% 29.92 in 9.0 mi SSW 3.5 mph - N/A   Scattered Clouds